STARLINK-32503, 62157

Orbit data source: Space-Track

STARLINK-32503, 62157 is a payload satellite owned by SpaceX/Seattle (US) in LEO that was launched on Sat, 30 Nov 2024 UTC via an FALCON 9 launch vehicle from the Air Force Eastern Test Range (AFETR). Payload-class satellites include a variety of spacecraft equipped with specific instruments for various scientific and technological missions. These include communications satellites like Starlink; space stations such as the ISS; scientific satellites like the Hubble; Earth observation satellites from companies like Planet Labs, Umbra, and HawkEye 360; GPS; miniature CubeSats for education and research; and military/defense satellites.

Loading next visibility...
Identifier
62157, 2024-224U
Orbit
LEO
Country
Flag of USUS
Related business
Manufacturer
SpaceX/Seattle
Mission
Operational Commercial Communications
Bus & Motor
STARLINK V2M, Unknown motor
Mass
730 kg wet, ~700 kg dry
Launch date (UTC)
2024-11-30 (1 year ago)
Launch vehicle
FALCON 9
Launch site
Air Force Eastern Test Range (AFETR)
Object type
Payload
Rocket body
Debris
Shape & HBR
Box + 2 Pan, 17.7 m
Radar Cross Section
33.884 m², Large (>1 m²)

Expand to show TLE details & history
Last TLE update: 19 hours ago

TLE from 19 hours ago
0 STARLINK-32503
1 62157U 24224U   25348.88027124  .00016221  00000-0  59778-3 0  9990
2 62157  42.9994 284.4892 0000828 283.9677  76.1082 15.27573910 58992
Epoch: 2025-12-14T21:07Z
TLE epoch observation values (Epoch: 2025-12-14T21:07:35.435Z)
Latitude
-0.00004°
Longitude
-116.19533°
Altitude
482.706 km
Speed
7.626 km/s
True Right ascension
18h 57m 57s
True Declination
0° 00' 00"
Sunlit
Object was in daylight at epoch
Visualization orbit readout
Latitude
Unknown
Longitude
Unknown
Altitude
Unknown
Speed
Unknown
Apparent Right ascension
Unknown
Apparent Declination
Unknown
Sunlit
N/A
Visualization observer readout
Local Sidereal Time
15:08:56
Azimuth
Unknown
Elevation
Unknown
Doppler factor
Unknown
Orbital elements
Apogee altitude
485.581 km
Perigee altitude
484.444 km
Semi-major axis
6,863.15 km
Eccentricity
0.00008
Inclination
42.9994°
RAAN
284.4892°
Arg. of periapsis
283.9677°
True anomaly
76.11741°
Mean anomaly
76.1082°
Eccentric anomaly
76.11281°
Mean motion
3.81731 °/min
Orbital period
94.31 mins
BSTAR
0.00059778
Loading maneuver chart data...
Computing Atmospheric mass density...
Loading historical data...
Loading historical data...
Loading historical data...
Loading historical data...
Loading historical data...
Loading historical data...
Loading historical data...

Documentation

Showing up to 5 results
|